This demonstration page uses our WeatherBlox Daily Observations layout. Learn more.

39.01783, -85.05884

Hourly Observations for June 22, 2019

Temp ( °F °C ) Dew Point ( °F °C ) Humidity (%) Winds ( mph kmh ) Pressure ( in mb ) Visibility ( mi km ) Precip ( " mm )
12:52 am 00:52 Cloudy 70 21.1 60 15.6 71 71 ESE 7 11 29.91 1013 10 16.09344 0 0
1:52 am 01:52 Cloudy 70 21.1 61 16.1 73 73 E 6 9 29.94 1014 10 16.09344 0 0
2:52 am 02:52 Cloudy 68 20 62 16.7 81 81 E 7 11 29.91 1013 10 16.09344 0 0
3:52 am 03:52 Cloudy 69 20.6 62 16.7 78 78 ESE 6 9 29.94 1014 10 16.09344 0 0
4:52 am 04:52 Cloudy 69 20.6 61 16.1 76 76 ESE 8 13 29.94 1014 10 16.09344 0.001 0.001
5:52 am 05:52 Mostly Cloudy 67 19.4 62 16.7 84 84 ESE 6 9 29.94 1014 10 16.09344 0 0
6:52 am 06:52 Mostly Cloudy 67 19.4 61 16.1 81 81 E 8 13 29.97 1015 10 16.09344 0 0
7:52 am 07:52 Cloudy 68 20 61 16.1 78 78 E 7 11 30 1016 10 16.09344 0 0
8:50 am 08:50 Cloudy with Rain 66 19 63 17 88 88 S 3 6 30.06 1018 2.5 4.02336 0.01 0.254
8:52 am 08:52 Cloudy with Rain 67 19.4 62 16.7 84 84 S 5 7 30.06 1018 2.5 4.02336 0.01 0.254
9:18 am 09:18 Cloudy with Light Rain 66 18.9 62 16.7 87 87 SE 6 9 30.06 1018 5 8.04672 0.06 1.524
9:52 am 09:52 Cloudy 66 18.9 62 16.7 87 87 ESE 10 17 30 1016 10 16.09344 0.06 1.524
10:52 am 10:52 Cloudy 67 19.4 62 16.7 84 84 ESE 9 15 29.97 1015 10 16.09344 0 0
11:52 am 11:52 Cloudy with Light Rain 67 19.4 62 16.7 84 84 ENE 12 19 30 1016 7 11.265408 0.001 0.001
12:22 pm 12:22 Cloudy with Light Rain 67 19.4 63 17.2 87 87 E 9 15 30.03 1017 10 16.09344 0.01 0.254
12:52 pm 12:52 Cloudy 68 20 62 16.7 81 81 E 8 13 30.03 1017 10 16.09344 0.01 0.254
1:52 pm 13:52 Cloudy with Light Rain 69 20.6 62 16.7 78 78 ESE 8 13 30.03 1017 8 12.874752 0.01 0.254
2:15 pm 14:15 Cloudy 69 20.6 62 16.7 78 78 E 10 17 30.03 1017 10 16.09344 0.001 0.001
2:52 pm 14:52 Cloudy 71 21.7 61 16.1 71 71 E 8 13 30.03 1017 10 16.09344 0.001 0.001
3:36 pm 15:36 Mostly Cloudy 74 23.3 63 17.2 69 69 E 13 20 30.03 1017 10 16.09344 0 0
3:52 pm 15:52 Mostly Cloudy 74 23.3 62 16.7 67 67 E 13 20 30.03 1017 10 16.09344 0 0
4:52 pm 16:52 Mostly Cloudy 76 24.4 62 16.7 62 62 VRB 7 11 30.03 1017 10 16.09344 0 0
5:52 pm 17:52 Mostly Cloudy 75 23.9 60 15.6 60 60 E 8 13 30.03 1017 10 16.09344 0 0
6:52 pm 18:52 Mostly Cloudy 76 24.4 60 15.6 58 58 ESE 6 9 30.03 1017 10 16.09344 0 0
7:52 pm 19:52 Mostly Cloudy 74 23.3 60 15.6 62 62 E 12 19 30 1016 10 16.09344 0 0
8:52 pm 20:52 Mostly Sunny 72 22.2 58 14.4 61 61 E 13 20 29.94 1014 10 16.09344 0 0
9:52 pm 21:52 Mostly Clear 71 21.7 56 13.3 59 59 ESE 10 17 30 1016 10 16.09344 0 0
10:52 pm 22:52 Mostly Clear 68 20 57 13.9 68 68 SE 3 6 30.03 1017 10 16.09344 0 0
11:52 pm 23:52 Mostly Clear 67 19.4 58 14.4 73 73 SE 5 7 30.03 1017 10 16.09344 0 0

Powered by AerisWeather